User: anonymous   Login
Location: Unspecified
(0.0000°N, 0.0000°E)
Time: 16:11:40
(UTC+02:00)
Language:

ARIANE 5 R/B - Orbit

View from above orbital plane
View from above orbital plane
View from above satellite
View from above satellite

Ground track
Ground track

The orbit data is extracted from the following two-line orbital elements,

1 28787U 05028B   15209.21442706 -.00000204  00000-0 -78897-3 0  9990
2 28787 007.1266 305.1651 7163377 036.2734 352.7841 02.26557127 82463
Epoch (UTC): 28 July 2015 05:08:46
Eccentricity: 0.7163377
inclination: 7.1266°
perigee height: 568 km
apogee height: 35651 km
right ascension of ascending node: 305.1651°
argument of perigee: 36.2734°
revolutions per day: 2.26557127
mean anomaly at epoch: 352.7841°
orbit number at epoch: 8246

The dashed part of the orbit path shows where the satellite is in the earth's shadow,  

DLR